Flag for Switzerland Weather past 2 weeks in Küsnacht, Zurich, Switzerland

Now
58 °F

Refreshingly cool.


Feels Like: 58 °F
Forecast: 40 / 64 °F
Wind: 5 mph from Northeast

Location: Zurich Town / Ville.


UV Index: 0 (Low)

Visibility: N/A


Pressure: 29.62 "Hg

Humidity: 54%

Dew point: 41 °F

Location of KüsnachtLocation

Historic Weather in Küsnacht

°F

Küsnacht temperature yesterday

Maximum temperature yesterday: 46 °F (at 5:00 PM)
Minimum temperature yesterday: 35 °F (at 1:00 AM)
Average temperature yesterday: 40 °F

Past Weeks' High & Low Weather Summary

 TemperatureHumidityPressure
High67 °F (Apr 11, 5:00 PM)98% (Apr 6, 6:00 AM)30.34 "Hg (Apr 6, 6:00 AM)
Low35 °F (Apr 18, 9:00 PM)25% (Apr 17, 4:00 PM)29.62 "Hg (Apr 20, 5:00 PM)
Average50 °F64%30.08 "Hg
* Reported Apr 5 5:00 PM — Apr 20 5:00 PM, Küsnacht, Weather by CustomWeather, © 2014

Note: Actual official high and low records may vary slightly from our data, if they occured in-between our weather recording intervals... More about our weather records

Advertising

Historic Weather Conditions — Data for Previous 24 hours

 ConditionsComfort  
Time TempWeatherWind HumidityBarometerVisibility
5:00 PM
Apr 20
59 °FRefreshingly cool.5 mph52%29.62 "HgN/A
4:00 PM58 °FRefreshingly cool.6 mph50%29.64 "HgN/A
3:00 PM58 °FRefreshingly cool.5 mph51%29.65 "HgN/A
2:00 PM56 °FHaze.3 mph55%29.67 "Hg6 mi
1:00 PM54 °FCool.2 mph59%29.69 "HgN/A
12:00 PM52 °FCool.5 mph60%29.71 "HgN/A
11:00 AM47 °FCool.1 mph66%29.73 "HgN/A
10:00 AM45 °FCool.2 mph81%29.75 "HgN/A
9:00 AM44 °FQuite cool.3 mph81%29.75 "HgN/A
8:00 AM42 °FFog.2 mph89%29.75 "Hg6 mi
7:00 AM41 °FQuite cool.2 mph89%29.75 "HgN/A
6:00 AM41 °FQuite cool.1 mph91%29.76 "HgN/A
5:00 AM38 °FChilly.No wind95%29.77 "HgN/A
4:00 AM37 °FChilly.No wind96%29.78 "HgN/A
3:00 AM38 °FChilly.No wind94%29.78 "HgN/A
2:00 AM38 °FChilly.3 mph93%29.77 "HgN/A
1:00 AM39 °FChilly.1 mph92%29.78 "HgN/A
12:00 AM39 °FChilly.1 mph91%29.80 "HgN/A
11:00 PM
Apr 19
41 °FQuite cool.5 mph88%29.80 "HgN/A
10:00 PM42 °FQuite cool.5 mph85%29.81 "HgN/A
9:00 PM42 °FQuite cool.6 mph84%29.81 "HgN/A
8:00 PM43 °FOvercast.2 mph81%29.80 "Hg9 mi
7:00 PM46 °FCool.2 mph70%29.79 "HgN/A
Weather by CustomWeather, © 2014

See weather overview